Regional Weather Roundup
Issued by NWS

Home | Current Version | Previous Version | Text Only | Print | Product List | Glossary On
Versions: 1 2 3 4 5 6 7 8 9 10 11 12 13 14 15 16 17 18 19 20 21 22 23 24 25 26 27 28 29 30 31 32 33 34 35 36 37 38 39 40 41 42 43 44 45 46 47 48 49 50
645
ASUS42 KTBW 251017
RWRFL
FLORIDA REGIONAL WEATHER ROUNDUP
NATIONAL WEATHER SERVICE TAMPA BAY RUSKIN FL
600 AM EDT WED APR 25 2018

NOTE: "FAIR" INDICATES FEW OR NO CLOUDS BELOW 12,000 FEET WITH NO
SIGNIFICANT WEATHER AND/OR OBSTRUCTIONS TO VISIBILITY.

FLZ001>010-012>015-112-114-115-251100-
PANHANDLE FLORIDA

CITY           SKY/WX    TMP DP  RH WIND       PRES   REMARKS
PENSACOLA      FAIR      58  54  86 NW5       29.99S
PENSACOLA NAS  FAIR      57  53  86 NW3       29.99S
MILTON NAS     FAIR      55  55 100 NW5       29.99R
CRESTVIEW      FAIR      51  49  92 CALM      29.99S
DUKE FIELD     FAIR      55  53  91 W6        29.98R
VALPARAISO     CLEAR     54  52  91 NW8       29.97R
MARY ESTHER    CLEAR     58  53  86 NW8       29.97R
TRI COUNTY     FAIR      56  55  97 CALM      29.96S
PANAMA CITY    FAIR      56  53  90 W5        29.95S
TYNDALL AFB    FAIR      56  54  92 NW7       29.96S
APALACHICOLA   FAIR      58  56  93 NW3       29.95S

STATION/POSITION SKY/WX   TEMP    WIND        PRES    WAVE   SWELL
                          AIR SEA DIR/SP/G            HT/PER HT/PER
                          (F)     (DEG/KT/KT) (MB)    (FT/S) (FT/S)
30.1N   87.6W              66     330/ 12/ 16 1015.8
29.2N   88.2W                 72  350/ 10/ 14 1016.5R   2/ 3
28.8N   86.0W              69 74  350/ 12/ 14 1014.5F   3/ 5
PANAMA CITY BEAC           62 70  300/  7/  9 1014.9S
TOWER C                    64     330/ 16/ 17 1014.3F

$$
FLZ011-016>038-118-127-128-134-139-239-251100-
NORTH FLORIDA

CITY           SKY/WX    TMP DP  RH WIND       PRES   REMARKS
MARIANNA       FAIR      56  54  93 W5        29.94S
TALLAHASSEE    FAIR      55  53  93 W5        29.93S
PERRY          FAIR      56  55  95 W3        29.93S
LIVE OAK       PTCLDY    59  59 100 CALM      29.93S
CROSS CITY     FAIR      59 N/A N/A NW5       29.93R
LAKE CITY      FAIR      57  55  94 CALM      29.92S
GAINESVILLE    FAIR      59  56  89 W6        29.94S
WILLISTON        N/A     59  59 100 CALM      29.92F FOG
PALATKA        MOCLDY    57  57 100 W3        29.92S
MAYPORT NAS    MOCLDY    65  60  84 W8        29.89R
JACKSONVILLE   FAIR      62  60  93 W6        29.89R
JAX NAS        FAIR      58  58 100 W6        29.91R
JAX CECIL      CLOUDY    59  59 100 CALM      29.90S
FERNANDINA BEA MOCLDY    64  58  81 NW7       29.88R
ST AUGUSTINE   FAIR      61  58  90 W8        29.91S
PALM COAST     CLEAR     61  59  94 W6        29.91S

STATION/POSITION SKY/WX   TEMP    WIND        PRES    WAVE   SWELL
                          AIR SEA DIR/SP/G            HT/PER HT/PER
                          (F)     (DEG/KT/KT) (MB)    (FT/S) (FT/S)
SHELL POINT      NOT AVBL
KEATON BEACH               63     330/  5/  7 1013.8R
CEDAR KEY                  68     330/  6/  9 1013.4F
FERNANDINA                 65 67  270/  6/  9 1012.9R
30.7N   81.3W                 67                N/A     3/ 9   2/11
MAYPORT                    65 67  270/  8/  9 1012.2R
31.4N   80.9W              65 65  260/ 17/ 21 1010.6R   4/10   3/10
ST AUGUSTINE               62 67  270/  6/  7 1012.7R

$$
FLZ040-043>046-052-053-057-058-063-144-251100-
INTERIOR CENTRAL FLORIDA

CITY           SKY/WX    TMP DP  RH WIND       PRES   REMARKS
OCALA          FAIR      60  59  96 SW3       29.93F
LEESBURG       FAIR      63  62  97 W5        29.93F
SANFORD        FAIR      61  58  90 W5        29.92F
ORLANDO INTL   FAIR      62  59  90 SW5       29.93F
KISSIMMEE      FAIR      60  58  92 W5        29.94F
WINTER HAVEN   FAIR      64  59  83 W7        29.95F
LAKELAND       CLEAR     57  57 100 SW5       29.94F
SEBRING        FAIR      61  57  87 CALM      29.95S
OKEECHOBEE     FAIR      59  57  94 S3        29.95R

$$
FLZ041-047-054-059-064-141-147-251100-
EAST CENTRAL FLORIDA

CITY           SKY/WX    TMP DP  RH WIND       PRES   REMARKS
DAYTONA BEACH  FAIR      60  60 100 SW7       29.91S
DELAND         FAIR      61  59  94 W5        29.92S
JFK SPACE CTR  FAIR      62  62 100 W6        29.91F
CAPE CANAVERAL FAIR      64  60  85 W9        29.90F
PATRICK AFB    FAIR      63  61  93 W10       29.92S
MELBOURNE      FAIR      62  59  90 W7        29.92S
VERO BEACH     FAIR      60  58  92 W6        29.94S
FT PIERCE      FAIR      58  58 100 SW5       29.94S
STUART         FAIR      63  59  88 W5        29.96S

STATION/POSITION SKY/WX   TEMP    WIND        PRES    WAVE   SWELL
                          AIR SEA DIR/SP/G            HT/PER HT/PER
                          (F)     (DEG/KT/KT) (MB)    (FT/S) (FT/S)
28.5N   80.2W              68 74  300/ 17/ 23 1012.7F   5/ 8   3/ 8
28.9N   78.5W              72 75  270/ 17/ 21 1012.2R   7/ 8
TRIDENT PIER               64 76  260/  6/  9 1014.4F
28.4N   80.5W                 75                N/A     2/ 9
27.5N   80.2W                 75                N/A     3/ 9   2/11

$$
FLZ050-056-061-142-242-148-248-149-249-151-251-155-255-
160-260-251100-
WEST CENTRAL FLORIDA

CITY           SKY/WX    TMP DP  RH WIND       PRES   REMARKS
CRYSTAL RIVER  FAIR      66  61  82 W5        29.93S
INVERNESS      FAIR      55  55 100 CALM      29.93F FOG
BROOKSVILLE    FAIR      57  55  93 CALM      29.94F
CLEARWATER AIR FAIR      68  59  73 NW6       29.93F
ST PETE CLEARW FAIR      70  59  68 W7        29.94F
TAMPA INTL     FAIR      68  59  73 W5        29.94F
TAMPA EXEC     FAIR      55  55 100 CALM      29.95S
PLANT CITY     FAIR      63  59  88 CALM      29.96S
MACDILL AFB    FAIR      69  60  73 NW9       29.94S
PETER O KNIGHT FAIR      66  59  77 CALM      29.94F
ST PETERSBURG  FAIR      69  60  73 NW6       29.92F
SARASOTA       FAIR      67  60  78 NW7       29.93F
VENICE         FAIR      72  59  64 NW12      29.95F

STATION/POSITION SKY/WX   TEMP    WIND        PRES    WAVE   SWELL
                          AIR SEA DIR/SP/G            HT/PER HT/PER
                          (F)     (DEG/KT/KT) (MB)    (FT/S) (FT/S)
27.3N   84.2W                 73                N/A     3/ 6
CLEARWATER BEACH           71 76  300/ 14/ 17 1013.8F
MIDDLE TAMPA BAY           70     340/ 12/ 14 1013.9F
VENICE                     71 76  320/ 14/ 15 1014.3R

$$
FLZ066-069-070-075>078-162-262-165-265-251100-
SOUTHWEST FLORIDA AND KEYS

CITY           SKY/WX    TMP DP  RH WIND       PRES   REMARKS
PUNTA GORDA    FAIR      67  59  75 NW6       29.97R
FT MYERS       FAIR      65  61  87 CALM      29.95S
SOUTHWEST INTL FAIR      63  62  97 CALM      29.96S
NAPLES         MOCLDY    69  66  90 SE5       29.96S
MARCO ISLAND   FAIR      67  64  90 NE5       29.98R
IMMOKALEE      FAIR      59  57  94 CALM      29.98R
MARATHON       FAIR      78  70  76 NW10      29.95R
KEY WEST NAS   MOCLDY    75  69  81 N9        29.96S
KEY WEST INTL  CLOUDY    76  71  85 N8        29.97R

STATION/POSITION SKY/WX   TEMP    WIND        PRES    WAVE   SWELL
                          AIR SEA DIR/SP/G            HT/PER HT/PER
                          (F)     (DEG/KT/KT) (MB)    (FT/S) (FT/S)
NAPLES                     72 80              1014.5R
26.0N   85.6W              75 79  320/  8/ 12 1015.0
DRY TORTUGAS               75      50/  4/  8 1014.9R
SAND KEY                   75                 1014.6R
SOMBRERO KEY               77     300/ 12/ 15 1013.6R
LONG KEY                   76 83  360/ 14/ 16 1014.1R
MOLASSES REEF              74 78  360/ 17/ 18 1014.0

$$
FLZ067-068-071>074-168-172>174-251100-
SOUTHEAST FLORIDA

CITY           SKY/WX    TMP DP  RH WIND       PRES   REMARKS
W PALM BEACH   FAIR      65  62  90 W6        29.95S
FT LAUDER-EXEC FAIR      70  63  78 NW6       29.96R
FT LAUDERDALE  MOCLDY    70  62  76 NW9       29.95R
POMPANO BEACH  MOCLDY    70  63  78 NW7       29.95S
PEMBROKE PINES CLOUDY    70  62  76 NW10      29.97S
OPA LOCKA      CLOUDY    70  62  76 NW9       29.96R
MIAMI          MOCLDY    69  63  81 NW12      29.96R
WEST KENDALL   MOCLDY    70  62  76 NW8       29.96R
HOMESTEAD      FAIR      70  63  78 N5        29.96R

STATION/POSITION SKY/WX   TEMP    WIND        PRES    WAVE   SWELL
                          AIR SEA DIR/SP/G            HT/PER HT/PER
                          (F)     (DEG/KT/KT) (MB)    (FT/S) (FT/S)
PORT EVERGLADES            71     310/  9/ 12 1014.2
VIRGINIA KEY               71 81  320/  6/ 12 1013.6R
LAKE WORTH                 68 78  310/  5/  7 1015.0S
FOWEY ROCKS                72 78  340/ 11/ 12 1015.2R
SETTLEMENT POINT           74     290/ 13/ 15 1014.0R

$$





USA.gov is the U.S. government's official web portal to all federal, state and local government web resources and services.